Pontiac, MI

7:58 AM EDT on October 20, 2017 (GMT -0400)
Oakland County International

Weather History for KPTK - January, 2013

Change the Weather History Date:

Monday, January 21, 2013

  Actual Average Record
Temperature  
Mean Temperature 8 °F -  
Max Temperature 14 °F 26 °F 50 °F (2017)
Min Temperature 1 °F 12 °F -2 °F (2000)
Degree Days  
Heating Degree Days 58    
Moisture  
Dew Point 3 °F    
Average Humidity 72    
Maximum Humidity 88    
Minimum Humidity 56    
Precipitation  
Precipitation 0.00 in - - ()
Sea Level Pressure  
Sea Level Pressure 30.00 in    
Wind  
Wind Speed 10 mph (WNW)    
Max Wind Speed 21 mph    
Max Gust Speed 29 mph    
Visibility 5 miles    
Events Fog , Snow    
Averages and records for this station are not official NWS values.
T = Trace of Precipitation, MM = Missing Value Source: NWS Daily Summary

Daily Weather History Graph

Daily Weather History Graph

Search for Another Location

Airport or City:

Trip Planner

Search our weather history database for the weather conditions in past years. The results will help you decide how hot, cold, wet, or windy it might be!

Date:

Astronomy

Jan. 21, 2013 Rise Set
Actual Time 7:57 AM EST 5:33 PM EST
Civil Twilight 7:26 AM EST 6:03 PM EST
Nautical Twilight 6:52 AM EST 6:38 PM EST
Astronomical Twilight 6:18 AM EST 7:11 PM EST
Moon 1:11 PM EST (1/21) 3:25 AM EST (1/21)
Length of Visible Light 10h 37m
Length of Day
9h 35m
Waxing Gibbous, 75% of the Moon is Illuminated
Jan 21
Waxing Gibbous
Jan 26
Full
Feb 3
Last Quarter
Feb 10
New
Feb 17
First Quarter

Hourly Weather History & Observations

Time (EST) Temp. Windchill Dew Point Humidity Pressure Visibility Wind Dir Wind Speed Gust Speed Precip Events Conditions
12:53 AM 12.9 °F -0.9 °F -0.0 °F 56% 30.14 in 10.0 mi WNW 11.5 mph - 0.00 in   Overcast
1:53 AM 12.9 °F 1.6 °F 1.0 °F 59% 30.11 in 10.0 mi WNW 8.1 mph - N/A   Overcast
2:53 AM 12.0 °F 5.9 °F 1.0 °F 61% 30.10 in 10.0 mi WSW 3.5 mph - N/A   Mostly Cloudy
3:53 AM 12.0 °F - 1.9 °F 64% 30.08 in 10.0 mi Calm Calm - N/A   Mostly Cloudy
4:53 AM 12.9 °F - 5.0 °F 71% 30.05 in 6.0 mi Calm Calm - 0.00 in Snow Light Snow
5:17 AM 12.2 °F - 6.8 °F 79% 29.98 in 6.0 mi Calm Calm - 0.00 in Snow Light Snow
5:29 AM 12.2 °F 6.1 °F 6.8 °F 79% 29.98 in 7.0 mi South 3.5 mph - 0.00 in Snow Light Snow
5:53 AM 12.9 °F 5.2 °F 7.0 °F 77% 30.03 in 6.0 mi South 4.6 mph - 0.00 in Snow Light Snow
6:53 AM 14.0 °F 6.5 °F 9.0 °F 80% 30.01 in 5.0 mi SSW 4.6 mph - 0.00 in Snow Light Snow
7:15 AM 14.0 °F 8.2 °F 8.6 °F 79% 29.95 in 1.8 mi SSW 3.5 mph - 0.00 in Snow Light Snow
7:37 AM 14.0 °F 8.2 °F 10.4 °F 86% 29.96 in 0.8 mi WSW 3.5 mph - N/A Snow Light Snow
7:53 AM 14.0 °F - 10.9 °F 88% 30.01 in 1.0 mi Calm Calm - 0.00 in Snow Light Snow
8:20 AM 14.0 °F 5.1 °F 10.4 °F 86% 29.94 in 1.0 mi WSW 5.8 mph - 0.00 in Snow Light Snow
8:36 AM 14.0 °F -0.8 °F 10.4 °F 86% 29.95 in 0.5 mi WNW 13.8 mph - 0.00 in Fog , Snow Light Snow
8:43 AM 14.0 °F 1.2 °F 10.4 °F 86% 29.95 in 0.8 mi NW 10.4 mph - 0.00 in Snow Light Snow
8:53 AM 12.9 °F -0.2 °F 9.0 °F 84% 30.01 in 0.8 mi WNW 10.4 mph - 0.00 in Snow Light Snow
8:57 AM 12.2 °F -1.8 °F 8.6 °F 85% 29.95 in 1.5 mi WNW 11.5 mph - 0.00 in Snow Light Snow
9:13 AM 12.2 °F -1.8 °F 6.8 °F 79% 29.95 in 5.0 mi WNW 11.5 mph - 0.00 in Snow Light Snow
9:53 AM 12.9 °F 0.7 °F 8.1 °F 81% 30.00 in 2.0 mi WNW 9.2 mph - 0.00 in Snow Light Snow
9:56 AM 12.2 °F 0.7 °F 8.6 °F 85% 29.95 in 3.0 mi WNW 8.1 mph - 0.00 in Snow Light Snow
10:09 AM 12.2 °F 0.7 °F 6.8 °F 79% 29.95 in 3.0 mi NW 8.1 mph - 0.00 in Snow Light Snow
10:53 AM 12.9 °F -0.2 °F 3.9 °F 67% 30.01 in 7.0 mi WNW 10.4 mph - 0.00 in   Mostly Cloudy
11:53 AM 12.9 °F -3.4 °F 1.9 °F 62% 29.98 in 10.0 mi West 16.1 mph - N/A   Mostly Cloudy
12:53 PM 12.9 °F -2.8 °F 1.9 °F 62% 29.97 in 9.0 mi WNW 15.0 mph - N/A   Mostly Cloudy
1:53 PM 12.0 °F -6.0 °F 3.9 °F 70% 29.97 in 1.5 mi NW 19.6 mph 25.3 mph 0.00 in Snow Light Snow
2:02 PM 12.2 °F -3.7 °F 3.2 °F 67% 29.91 in 2.5 mi WNW 15.0 mph 26.5 mph 0.00 in Snow Light Snow
2:06 PM 12.2 °F -3.7 °F 3.2 °F 67% 29.91 in 7.0 mi West 15.0 mph - 0.00 in   Mostly Cloudy
2:53 PM 12.0 °F -6.0 °F 3.0 °F 67% 29.98 in 2.0 mi WNW 19.6 mph 28.8 mph 0.00 in Snow Light Snow
3:01 PM 10.4 °F -7.2 °F 3.2 °F 73% 29.92 in 1.2 mi WNW 17.3 mph - 0.00 in Snow Light Snow
3:26 PM 10.4 °F -8.6 °F 3.2 °F 73% 29.93 in 3.0 mi WNW 20.7 mph 26.5 mph 0.00 in Snow Light Snow
3:41 PM 10.4 °F -7.2 °F 1.4 °F 67% 29.94 in 9.0 mi West 17.3 mph - 0.00 in   Mostly Cloudy
3:53 PM 10.9 °F -7.9 °F -0.9 °F 59% 30.00 in 10.0 mi WNW 20.7 mph 24.2 mph 0.00 in   Mostly Cloudy
4:53 PM 10.0 °F -6.5 °F -2.0 °F 58% 30.01 in 10.0 mi WNW 15.0 mph 23.0 mph N/A   Mostly Cloudy
5:37 PM 8.6 °F -8.9 °F 1.4 °F 73% 29.96 in 1.8 mi WNW 16.1 mph 20.7 mph 0.00 in Snow Light Snow
5:50 PM 8.6 °F -10.0 °F 3.2 °F 79% 29.97 in 3.0 mi WNW 18.4 mph 25.3 mph 0.00 in Snow Light Snow
5:53 PM 9.0 °F -10.0 °F 1.9 °F 73% 30.03 in 3.0 mi WNW 19.6 mph 25.3 mph 0.00 in Snow Light Snow
5:59 PM 8.6 °F -8.3 °F 1.4 °F 73% 29.97 in 2.5 mi WNW 15.0 mph 25.3 mph 0.00 in Snow Light Snow
6:22 PM 8.6 °F -8.9 °F 1.4 °F 73% 29.98 in 6.0 mi West 16.1 mph 24.2 mph 0.00 in Snow Light Snow
6:48 PM 8.6 °F -10.5 °F -0.4 °F 67% 29.98 in 8.0 mi West 19.6 mph - 0.00 in   Mostly Cloudy
6:53 PM 8.1 °F -9.6 °F -0.9 °F 67% 30.04 in 9.0 mi West 16.1 mph - 0.00 in   Mostly Cloudy
7:21 PM 8.6 °F -7.7 °F 1.4 °F 73% 29.99 in 2.5 mi WNW 13.8 mph - 0.00 in Snow Light Snow
7:29 PM 6.8 °F -11.8 °F 1.4 °F 79% 29.99 in 1.5 mi West 17.3 mph - 0.00 in Snow Light Snow
7:44 PM 6.8 °F -11.3 °F 1.4 °F 79% 30.00 in 1.5 mi NW 16.1 mph 23.0 mph 0.00 in Snow Light Snow
7:53 PM 7.0 °F -11.0 °F -0.0 °F 73% 30.06 in 1.5 mi WNW 16.1 mph 23.0 mph 0.00 in Snow Light Snow
7:56 PM 6.8 °F -12.4 °F -0.4 °F 72% 30.00 in 3.0 mi WNW 18.4 mph 27.6 mph 0.00 in Snow Light Snow
8:19 PM 6.8 °F -12.4 °F -5.8 °F 56% 30.00 in 10.0 mi WNW 18.4 mph - 0.00 in   Mostly Cloudy
8:53 PM 5.0 °F -11.6 °F -7.1 °F 58% 30.07 in 10.0 mi WNW 12.7 mph 23.0 mph 0.00 in   Partly Cloudy
9:53 PM 3.9 °F -14.3 °F -7.1 °F 60% 30.09 in 10.0 mi West 15.0 mph - N/A   Partly Cloudy
10:53 PM 3.0 °F -13.3 °F -7.1 °F 63% 30.10 in 10.0 mi West 11.5 mph - N/A   Partly Cloudy
11:40 PM 1.4 °F -15.3 °F -5.8 °F 72% 30.04 in 9.0 mi West 11.5 mph - N/A   Mostly Cloudy
11:48 PM 1.4 °F -16.9 °F -5.8 °F 72% 30.04 in 9.0 mi West 13.8 mph - 0.00 in Snow Light Snow
11:53 PM 1.9 °F -15.5 °F -6.0 °F 69% 30.11 in 9.0 mi West 12.7 mph - 0.00 in Snow Light Snow